Weather History for Antigo, WI

Change the Weather History Date:

Thursday, March 27, 2014

  Actual Average Record
Temperature  
Mean Temperature 28 °F -  
Max Temperature 33 °F 42 °F 66 °F (1998)
Min Temperature 24 °F 22 °F -9 °F (2011)
Degree Days  
Heating Degree Days 36    
Moisture  
Dew Point 29 °F    
Average Humidity 97    
Maximum Humidity 100    
Minimum Humidity 91    
Precipitation  
Precipitation 0.86 in - - ()
Sea Level Pressure  
Sea Level Pressure 29.60 in    
Wind  
Wind Speed 11 mph (SE)    
Max Wind Speed 16 mph    
Max Gust Speed 18 mph    
Visibility 4 miles    
Events Rain , Snow    
Averages and records for this station are not official NWS values.
T = Trace of Precipitation, MM = Missing Value Source: NWS Daily Summary

Daily Weather History Graph

Daily Weather History Graph

Search for Another Location

Airport:

Trip Planner

Search our weather history database for the weather conditions in past years. The results will help you decide how hot, cold, wet, or windy it might be!

Date:

Astronomy

Mar. 27, 2014 Rise Set
Actual Time 6:46 AM CDT 7:17 PM CDT
Civil Twilight 6:16 AM CDT 7:47 PM CDT
Nautical Twilight 5:41 AM CDT 8:22 PM CDT
Astronomical Twilight 5:05 AM CDT 8:58 PM CDT
Moon 4:46 AM CDT (3/27) 3:57 PM CDT (3/27)
Length of Visible Light 13h 30m
Length of Day
12h 31m
Waning Crescent, 13% of the Moon is Illuminated
Mar 27
Waning Crescent
Mar 30
New
Apr 7
First Quarter
Apr 15
Full
Apr 22
Last Quarter

Hourly Weather History & Observations

Time (CDT) Temp. Windchill Dew Point Humidity Pressure Visibility Wind Dir Wind Speed Gust Speed Precip Events Conditions
12:15 AM 24.4 °F 12.4 °F 22.1 °F 91% 29.82 in 10.0 mi SSE 13.8 mph 18.4 mph N/A   Overcast
12:35 AM 24.8 °F 12.9 °F 22.8 °F 92% 29.81 in 10.0 mi SSE 13.8 mph - 0.01 in   Overcast
12:55 AM 24.8 °F 12.9 °F 23.0 °F 93% 29.80 in 7.0 mi SSE 13.8 mph - 0.01 in   Overcast
1:15 AM 25.2 °F 12.9 °F 23.7 °F 94% 29.78 in 7.0 mi SSE 15.0 mph - N/A   Overcast
1:35 AM 25.2 °F 13.3 °F 23.7 °F 94% 29.77 in 7.0 mi SSE 13.8 mph - N/A   Overcast
1:55 AM 25.5 °F 13.8 °F 23.9 °F 94% 29.76 in 7.0 mi SSE 13.8 mph - N/A   Overcast
2:15 AM 25.7 °F 13.1 °F 23.9 °F 93% 29.75 in 7.0 mi SSE 16.1 mph - N/A   Overcast
2:35 AM 26.1 °F 14.0 °F 24.4 °F 94% 29.74 in 7.0 mi SSE 15.0 mph - N/A   Overcast
2:55 AM 26.4 °F 15.5 °F 24.8 °F 94% 29.74 in 7.0 mi SSE 12.7 mph - N/A   Overcast
3:15 AM 26.6 °F 15.7 °F 25.2 °F 94% 29.73 in 7.0 mi SSE 12.7 mph - 0.01 in   Overcast
3:35 AM 26.6 °F 15.7 °F 25.2 °F 94% 29.72 in 5.0 mi SSE 12.7 mph - 0.03 in   Overcast
3:55 AM 27.0 °F 16.1 °F 25.3 °F 94% 29.71 in 7.0 mi SSE 12.7 mph - 0.04 in   Overcast
4:15 AM 27.1 °F 15.9 °F 25.3 °F 93% 29.71 in 10.0 mi SSE 13.8 mph - N/A   Overcast
4:35 AM 27.1 °F 16.9 °F 25.5 °F 94% 29.70 in 7.0 mi SSE 11.5 mph - 0.01 in   Overcast
4:55 AM 27.1 °F 15.9 °F 25.3 °F 93% 29.69 in 7.0 mi SSE 13.8 mph - 0.03 in   Overcast
5:15 AM 27.5 °F 15.9 °F 25.5 °F 92% 29.69 in 7.0 mi SSE 15.0 mph - 0.03 in   Overcast
5:35 AM 27.5 °F 16.3 °F 25.7 °F 93% 29.68 in 5.0 mi SSE 13.8 mph - 0.07 in   Overcast
5:55 AM 27.5 °F 17.4 °F 25.7 °F 93% 29.68 in 5.0 mi SSE 11.5 mph - 0.11 in   Overcast
6:15 AM 27.5 °F 16.8 °F 26.4 °F 96% 29.67 in 4.0 mi SSE 12.7 mph - 0.03 in Snow Light Snow
6:35 AM 28.0 °F 17.5 °F 26.6 °F 94% 29.67 in 5.0 mi SSE 12.7 mph - 0.08 in   Overcast
6:55 AM 28.0 °F 18.1 °F 26.6 °F 94% 29.67 in 5.0 mi SSE 11.5 mph - 0.14 in   Overcast
7:15 AM 28.2 °F 18.3 °F 26.6 °F 94% 29.67 in 1.5 mi SSE 11.5 mph - 0.03 in Snow Light Snow
7:35 AM 28.4 °F 19.7 °F 27.0 °F 94% 29.66 in 4.0 mi SSE 9.2 mph - 0.10 in Snow Light Snow
7:55 AM 28.6 °F 19.3 °F 27.1 °F 94% 29.65 in 7.0 mi SSE 10.4 mph - 0.16 in   Overcast
8:15 AM 28.9 °F 20.4 °F 27.3 °F 94% 29.65 in 3.0 mi SSE 9.2 mph - 0.03 in   Overcast
8:35 AM 29.3 °F 21.5 °F 27.5 °F 93% 29.65 in 4.0 mi SSE 8.1 mph - 0.04 in Snow Light Snow
8:55 AM 29.7 °F 20.1 °F 28.0 °F 94% 29.64 in 5.0 mi SSE 11.5 mph - 0.05 in   Overcast
9:15 AM 30.2 °F 21.9 °F 28.4 °F 93% 29.64 in 3.0 mi SSE 9.2 mph - 0.01 in   Overcast
9:35 AM 30.9 °F 22.8 °F 29.3 °F 94% 29.64 in 3.0 mi South 9.2 mph - 0.01 in   Overcast
9:55 AM 31.1 °F 22.4 °F 29.7 °F 94% 29.63 in 2.5 mi SSE 10.4 mph - 0.02 in   Overcast
10:15 AM 31.5 °F 23.5 °F 30.4 °F 96% 29.63 in 2.0 mi SSE 9.2 mph - N/A   Overcast
10:35 AM 31.8 °F 23.9 °F 31.1 °F 97% 29.63 in 1.5 mi SSE 9.2 mph - N/A   Overcast
10:55 AM 32.0 °F 24.2 °F 31.1 °F 96% 29.62 in 1.5 mi SSE 9.2 mph - N/A   Overcast
11:15 AM 32.0 °F 23.6 °F 31.8 °F 99% 29.62 in 1.5 mi South 10.4 mph - N/A   Overcast
11:35 AM 32.4 °F 25.3 °F 32.0 °F 99% 29.61 in 1.8 mi South 8.1 mph - 0.01 in   Overcast
11:55 AM 32.9 °F 25.9 °F 32.0 °F 96% 29.60 in 2.0 mi South 8.1 mph - 0.01 in   Overcast
12:15 PM 33.1 °F 24.9 °F 32.2 °F 96% 29.60 in 2.5 mi South 10.4 mph - N/A   Overcast
12:35 PM 33.1 °F 24.9 °F 32.2 °F 96% 29.59 in 2.5 mi South 10.4 mph - N/A   Overcast
12:55 PM 33.3 °F 25.1 °F 32.4 °F 96% 29.58 in 2.0 mi SSE 10.4 mph - N/A   Overcast
1:15 PM 33.1 °F 25.5 °F 32.4 °F 97% 29.58 in 2.0 mi SSE 9.2 mph - N/A   Overcast
1:35 PM 33.1 °F 25.5 °F 32.4 °F 97% 29.57 in 2.0 mi SSE 9.2 mph - N/A   Overcast
1:55 PM 33.1 °F 24.4 °F 32.5 °F 98% 29.56 in 1.8 mi SSE 11.5 mph - N/A   Overcast
2:15 PM 33.1 °F 24.9 °F 32.5 °F 98% 29.55 in 1.8 mi SSE 10.4 mph - N/A   Overcast
2:35 PM 32.9 °F 25.3 °F 32.5 °F 99% 29.54 in 1.5 mi SSE 9.2 mph - N/A   Overcast
2:55 PM 32.5 °F 24.8 °F 32.4 °F 99% 29.53 in 0.8 mi SE 9.2 mph - N/A   Drizzle
3:15 PM 32.5 °F 25.5 °F 32.4 °F 99% 29.52 in 1.2 mi SE 8.1 mph - N/A Rain Light Rain
3:35 PM 32.4 °F 26.9 °F 32.2 °F 99% 29.51 in 2.5 mi SE 5.8 mph - 0.01 in   Overcast
3:55 PM 32.0 °F 24.2 °F 32.0 °F 100% 29.50 in 1.0 mi SE 9.2 mph - 0.02 in Snow Light Snow
4:15 PM 32.0 °F 25.6 °F 32.0 °F 100% 29.49 in 0.8 mi ESE 6.9 mph - 0.04 in Snow Light Snow
4:35 PM 32.0 °F 27.5 °F 32.0 °F 100% 29.50 in 1.0 mi SE 4.6 mph - 0.10 in Snow Light Snow
4:55 PM 32.0 °F 26.4 °F 32.0 °F 100% 29.51 in 3.0 mi SE 5.8 mph - 0.14 in Snow Light Snow
5:15 PM 32.0 °F 26.4 °F 32.0 °F 100% 29.49 in 2.0 mi ESE 5.8 mph - 0.02 in Snow Light Snow
5:35 PM 32.0 °F 25.6 °F 32.0 °F 100% 29.48 in 2.5 mi East 6.9 mph - 0.04 in Snow Light Snow
5:55 PM 32.0 °F 26.4 °F 32.0 °F 100% 29.48 in 2.5 mi East 5.8 mph - 0.04 in   Overcast
6:15 PM 32.0 °F 27.5 °F 32.0 °F 100% 29.48 in 1.5 mi East 4.6 mph - N/A Snow Light Snow
6:35 PM 32.0 °F 26.4 °F 32.0 °F 100% 29.47 in 1.8 mi East 5.8 mph - N/A   Overcast
6:55 PM 32.0 °F 26.4 °F 32.0 °F 100% 29.48 in 1.5 mi ENE 5.8 mph - 0.01 in Snow Light Snow
7:15 PM 32.0 °F 27.5 °F 32.0 °F 100% 29.49 in 1.0 mi ENE 4.6 mph - 0.01 in Snow Light Snow
7:35 PM 32.0 °F 26.4 °F 32.0 °F 100% 29.48 in 2.5 mi NE 5.8 mph - 0.02 in Snow Light Snow
7:55 PM 32.0 °F 25.6 °F 32.0 °F 100% 29.47 in 3.0 mi NE 6.9 mph - 0.03 in Rain Light Rain
8:15 PM 32.0 °F 25.6 °F 32.0 °F 100% 29.47 in 5.0 mi NE 6.9 mph - N/A   Overcast
8:35 PM 32.0 °F 25.6 °F 32.0 °F 100% 29.48 in 5.0 mi NE 6.9 mph - N/A   Overcast
8:55 PM 32.0 °F 25.6 °F 32.0 °F 100% 29.47 in 5.0 mi NNE 6.9 mph - N/A Snow Light Snow
9:15 PM 32.0 °F 24.8 °F 32.0 °F 100% 29.48 in 3.0 mi NNE 8.1 mph - N/A Snow Light Snow
9:35 PM 32.0 °F 25.6 °F 32.0 °F 100% 29.48 in 4.0 mi NE 6.9 mph - 0.01 in Snow Light Snow
9:55 PM 32.0 °F 28.7 °F 32.0 °F 100% 29.49 in 2.5 mi NNE 3.5 mph - 0.01 in Snow Light Snow
10:15 PM 32.0 °F 28.7 °F 32.0 °F 100% 29.49 in 1.2 mi NNE 3.5 mph - 0.02 in Snow Light Snow
10:35 PM 32.0 °F 26.4 °F 32.0 °F 100% 29.48 in 1.2 mi North 5.8 mph - 0.04 in Snow Light Snow
10:55 PM 31.8 °F 26.2 °F 31.8 °F 100% 29.49 in 5.0 mi North 5.8 mph - 0.04 in Snow Light Snow
11:15 PM 31.8 °F 22.8 °F 31.8 °F 100% 29.48 in 10.0 mi North 11.5 mph - N/A   Overcast
11:35 PM 32.0 °F 23.6 °F 31.8 °F 99% 29.49 in 10.0 mi North 10.4 mph - N/A   Overcast
11:55 PM 32.0 °F 22.5 °F 31.6 °F 99% 29.49 in 10.0 mi North 12.7 mph - N/A   Overcast